STARLINK-2298

Last updated on Sat Apr 24 2021 00:02:02 GMT+0000 (Coordinated Universal Time)

1 48022U 21024AX 21113.25001157 .00033509 00000-0 24246-3 0 9995 2 48022 53.0484 55.6592 0001269 80.9494 91.5658 15.73172468 1825
UTC large
Height (km)
Speed (km/s)
/
Latitude / Longitude
Inclination (degrees)
Orbital Period (minutes)
Azimuth
Elevation
Range (km)
Doppler Factor

Next 0 passes for location: London (51.5072 / 0.1276)

Sorry there are no passes over London.